Weather in Ozerki

Russia / Kaliningrad Oblast     54°37′46″N   20°53′32″E
temp.,
°C
wind,
m/s
gust,
m/s
humid.,
%
clouds,
%
prec.,
mm/h
press.,
hPa
HPBL,
m
15 april, thu
thu1523:00+5nne51072100 0.1 1022674
02:00+3nne61287100 0.2 1022775
05:00+2nne71497100 0.8 1021665
08:00+4nne61388100 1.1 1021803
11:00+7ne61273100 0.1 1021962
14:00+9ne61163100 0.1 10211104
17:00+10ne61058100 0.0 10201380
20:00+7ene1275100 0.0 102141
16 april, fri
fri1623:00+6nne51161100 0.0 1020515
02:00+6nne5969100 0.0 1020826
05:00+5n5981100 0.1 1019572
08:00+4n5989100 0.2 1019480
11:00+5nne4887100 0.1 1019506
14:00+6nne4991100 1.1 1019555
17:00+8ne4787100 0.0 1019595
20:00+7ne3791100 0.1 1020320
17 april, sat
sat1723:00+7nne4894100 0.1 1020280
02:00+7ne3994100 0.1 1020299
05:00+8ne41094100 0.0 1020410
08:00+8ne3996100 0.6 1021448
11:00+10e478598 0.0 1021741
14:00+11e3683100 0.1 1022716
17:00+12e477323 0.2 1022975
20:00+9ne3691100 0.3 1023109
18 april, sun
sun1823:00+7ene389598 0.0 1023168
02:00+7ene389697 0.0 1023199
05:00+6ne369599 0.0 1023127
08:00+9ne3989100 0.0 1022388
11:00+14e5866100 0.0 10221077
14:00+16e685899 0.3 10211635
17:00+16e476284 0.6 10211138
20:00+12ene397574 0.6 1022194
19 april, mon
mon1923:00+10e378484 0.1 1023158
02:00+10e3686100 0.1 1023170
05:00+10ene2588100 0.0 1023130
08:00+10ene2786100 0.0 1023258
11:00+15e466097 0.4 10231030
14:00+16ese575393 1.0 10231538
17:00+15ene475688 0.2 10221244
20:00+10ene357394 0.2 102280